Temp
11 11 11 11 11 11 11 11 11 11 11 12 12 12 12 12 12 12 12 12 12 12 12 12 12 12 11 11 12 11 8 7 12 12 13 13 11 12 11 11 11 11 10 8 7
11 11 11 11 11 11 11 11 11 11 11 11 11 11 11 11 12 11 11 12 12 12 12 12 12 11 12 12 12 8 6 11 13 12 11 12 12 11 11 10 10 10 9 8 8
11 11 10 11 10 11 10 10 11 11 11 11 11 11 11 11 11 12 11 12 12 12 11 11 11 11 12 12 12 11 9 12 11 11 11 10 11 11 9 8 8 9 8 8 8
11 11 10 10 10 10 10 10 10 10 11 11 11 11 11 11 11 12 11 11 11 11 11 11 11 11 11 11 13 11 11 12 12 10 10 10 10 9 9 9 9 9 8 7 6
10 10 10 10 9 10 10 10 10 10 10 10 10 10 10 10 11 11 11 11 11 11 10 11 11 11 10 10 12 10 10 12 11 11 10 10 9 8 9 9 8 8 8 7 6
9 10 10 10 10 10 10 10 10 10 10 10 10 10 10 8 11 11 11 11 11 10 10 10 10 10 10 10 10 10 10 10 11 10 10 9 8 8 9 9 7 7 7 6 6
10 10 9 9 10 10 9 9 9 9 9 10 9 9 9 10 10 10 10 10 10 10 10 9 9 9 9 8 9 9 8 8 9 10 8 9 7 7 8 8 7 6 6 6 5
9 9 9 9 9 9 9 9 9 9 9 9 9 9 9 10 10 10 10 9 9 9 9 8 8 8 8 8 9 8 9 7 8 8 6 8 5 6 8 7 6 6 6 5 6
9 9 10 10 10 10 9 9 9 8 9 9 9 8 9 10 10 10 10 9 9 8 8 8 7 7 7 7 7 8 6 7 8 8 6 6 5 6 7 7 6 6 6 5 5
9 9 9 10 9 9 9 9 9 9 9 9 9 8 9 10 10 9 9 8 8 8 8 7 7 4 4 4 4 6 6 6 6 7 6 4 4 5 7 6 6 6 5 5 4
8 9 9 10 10 9 9 9 9 9 9 10 11 11 10 9 9 9 9 8 8 8 6 7 4 3 5 4 6 6 7 5 7 6 6 4 4 5 6 6 4 5 4 3 3
8 9 9 9 9 8 8 8 8 7 7 9 9 9 9 9 8 8 8 8 8 7 7 6 5 8 8 7 7 7 6 5 6 5 5 4 4 3 6 5 4 4 3 1 0
8 8 7 7 7 7 8 7 7 7 6 8 9 9 8 8 8 8 8 8 8 7 8 6 8 9 9 8 7 6 5 6 6 5 6 4 3 2 4 5 5 3 1 1 -1
7 7 6 8 8 8 7 8 7 6 6 8 9 8 8 8 8 8 8 7 8 8 8 8 8 8 8 7 6 6 5 5 5 3 2 6 2 4 3 1 4 2 1 -0 -1
6 6 5 7 8 8 8 7 7 7 4 8 8 8 8 8 7 7 7 7 7 7 8 7 8 7 7 6 7 4 5 4 4 3 3 4 1 3 3 1 3 0 -0 -1 -2
6 6 7 6 7 7 8 7 7 7 7 8 7 6 7 6 6 7 7 7 7 6 7 6 7 6 6 5 5 5 4 4 4 2 1 0 2 2 -1 -3 -0 -2 -2 -2 -2
5 6 5 5 7 7 7 6 5 6 8 8 7 6 6 7 8 8 4 4 3 3 3 7 6 5 6 5 4 4 2 1 4 3 2 1 2 1 1 2 -5 -7 -3 -3 -3
5 5 5 4 5 6 6 4 3 6 8 8 8 7 7 8 8 9 7 4 5 4 0 3 4 4 5 4 4 4 3 2 4 3 3 3 1 2 2 0 -2 -2 -3 -3 -3
5 4 4 4 5 6 6 2 6 8 8 8 7 6 8 8 6 6 7 6 4 2 3 2 5 4 4 4 4 4 1 2 1 -0 1 3 3 2 2 -1 -3 -4 -4 -4 -4
5 4 4 5 5 5 4 4 6 6 7 7 5 6 6 7 5 5 5 4 3 4 3 2 0 5 3 3 3 3 3 2 1 2 1 4 3 1 -1 -3 -5 -7 -7 -5 -5
4 4 4 4 5 5 5 4 7 5 5 4 5 4 4 4 4 4 5 3 3 1 3 2 -1 2 3 2 3 2 0 2 1 1 1 1 2 -5 -7 -10 -9 -9 -5 -5 -5
4 1 3 4 3 2 3 5 4 6 4 3 3 4 3 3 4 4 4 2 0 -0 0 2 0 -0 3 2 2 2 3 3 2 2 -1 -1 1 -3 -7 -11 -7 -6 -5 -5 -5
3 4 3 3 0 2 3 5 4 3 4 2 3 3 2 2 4 4 4 -0 -1 0 -0 1 -1 -0 2 1 2 2 2 1 -1 -3 -2 -1 1 -2 -3 -9 -5 -6 -5 -5 -5
3 1 2 3 2 3 2 3 3 2 2 2 2 2 2 2 3 3 3 0 -1 -1 -1 1 -0 1 3 3 1 1 1 1 1 -1 -3 -1 -1 -0 -1 -8 -8 -5 -5 -5 -5
3 2 4 2 1 1 1 2 3 2 1 1 2 2 2 3 0 2 2 0 -1 -1 -0 -1 -1 0 1 2 3 3 1 -1 -1 0 1 -2 -4 -3 -7 -10 -6 -6 -6 -5 -5
3 2 3 3 2 1 1 2 3 2 2 3 1 2 1 2 2 2 2 1 1 -1 -0 -2 0 0 -0 3 2 2 2 1 -0 0 -1 -3 -1 -3 -4 -4 -5 -5 -6 -6 -6
3 3 4 2 1 1 2 2 3 2 2 2 2 1 1 1 -1 -1 -1 -1 -1 -1 -1 -1 -1 -0 1 3 -1 1 -0 0 -1 -4 -2 -0 0 -3 -3 -4 -5 -5 -6 -6 -7
Height
1527 1524 1523 1521 1517 1515 1512 1509 1506 1504 1502 1500 1496 1494 1491 1487 1484 1481 1480 1481 1480 1479 1478 1475 1474 1475 1476 1477 1477 1476 1483 1485 1470 1467 1465 1464 1465 1465 1465 1466 1469 1470 1471 1473 1475
1525 1523 1521 1519 1516 1514 1512 1508 1505 1503 1501 1498 1495 1492 1489 1485 1481 1479 1480 1480 1479 1477 1476 1474 1473 1473 1475 1475 1475 1477 1484 1473 1466 1465 1466 1465 1464 1464 1466 1466 1468 1469 1470 1471 1473
1523 1520 1518 1516 1515 1512 1510 1507 1504 1501 1499 1496 1494 1491 1488 1484 1480 1479 1479 1479 1478 1476 1475 1474 1473 1474 1473 1471 1471 1471 1474 1466 1466 1465 1466 1466 1465 1465 1465 1466 1465 1467 1468 1469 1470
1519 1517 1515 1513 1511 1509 1507 1505 1502 1500 1497 1494 1491 1488 1486 1483 1486 1478 1478 1478 1476 1475 1474 1473 1472 1473 1471 1469 1467 1469 1464 1464 1464 1464 1464 1465 1465 1463 1463 1463 1463 1465 1466 1467 1468
1516 1513 1511 1510 1508 1506 1505 1503 1500 1498 1495 1492 1488 1485 1483 1482 1479 1477 1477 1476 1475 1474 1473 1472 1471 1470 1469 1468 1466 1465 1462 1462 1462 1461 1462 1462 1462 1463 1460 1461 1462 1463 1464 1465 1465
1511 1509 1506 1506 1504 1502 1500 1499 1497 1495 1493 1489 1486 1483 1481 1482 1476 1476 1475 1475 1474 1473 1473 1472 1471 1470 1469 1467 1467 1465 1463 1461 1459 1458 1459 1459 1459 1460 1456 1457 1459 1460 1461 1464 1464
1506 1504 1502 1501 1499 1497 1496 1495 1493 1492 1490 1486 1483 1480 1479 1477 1474 1475 1474 1473 1472 1472 1472 1471 1471 1471 1469 1467 1466 1464 1464 1459 1456 1452 1456 1456 1458 1454 1453 1455 1457 1459 1461 1462 1461
1502 1500 1498 1497 1496 1494 1492 1491 1489 1488 1486 1483 1480 1478 1475 1473 1473 1473 1472 1471 1471 1471 1471 1470 1470 1470 1468 1468 1465 1465 1462 1464 1452 1450 1457 1458 1460 1452 1450 1453 1455 1458 1459 1458 1457
1499 1496 1493 1492 1491 1489 1488 1486 1485 1484 1482 1480 1479 1477 1473 1472 1472 1472 1472 1471 1470 1470 1470 1469 1469 1469 1468 1468 1468 1462 1465 1462 1456 1452 1455 1458 1456 1450 1450 1451 1453 1455 1456 1455 1452
1496 1493 1489 1486 1485 1484 1483 1481 1481 1479 1478 1476 1477 1480 1474 1471 1471 1471 1469 1468 1468 1468 1470 1470 1470 1471 1471 1473 1478 1468 1466 1460 1461 1455 1454 1457 1451 1448 1447 1449 1451 1452 1453 1451 1450
1493 1489 1486 1483 1481 1479 1479 1479 1480 1479 1475 1473 1471 1470 1472 1470 1470 1469 1469 1468 1467 1468 1469 1469 1475 1478 1468 1466 1463 1463 1462 1463 1455 1456 1456 1455 1449 1445 1443 1445 1449 1450 1451 1450 1446
1492 1486 1483 1480 1479 1478 1479 1477 1477 1478 1473 1470 1468 1469 1468 1469 1469 1468 1469 1469 1466 1467 1465 1471 1472 1460 1459 1461 1463 1461 1464 1462 1454 1455 1456 1451 1445 1443 1441 1443 1446 1449 1448 1449 1444
1490 1484 1482 1480 1479 1480 1479 1478 1475 1475 1474 1468 1467 1467 1468 1469 1469 1469 1470 1467 1465 1464 1461 1466 1459 1457 1458 1458 1461 1462 1463 1458 1459 1456 1450 1450 1448 1448 1443 1443 1446 1448 1449 1446 1443
1489 1485 1481 1481 1483 1480 1478 1477 1475 1474 1474 1469 1467 1468 1468 1467 1469 1468 1466 1469 1463 1461 1458 1458 1458 1457 1457 1459 1462 1464 1459 1459 1460 1464 1466 1448 1463 1445 1444 1448 1446 1447 1445 1443 1439
1489 1485 1482 1479 1481 1479 1479 1476 1475 1473 1498 1470 1469 1468 1466 1467 1465 1462 1464 1466 1463 1460 1461 1458 1456 1457 1458 1460 1460 1463 1459 1460 1460 1463 1460 1451 1467 1449 1445 1451 1445 1446 1445 1441 1435
1488 1484 1480 1482 1480 1479 1479 1476 1477 1475 1476 1468 1467 1468 1467 1466 1466 1462 1463 1466 1462 1460 1458 1455 1455 1457 1459 1461 1462 1461 1459 1459 1460 1464 1474 1463 1459 1456 1459 1459 1448 1446 1443 1438 1430
1486 1483 1480 1480 1481 1479 1477 1477 1484 1480 1469 1469 1466 1467 1467 1465 1460 1460 1463 1465 1469 1471 1470 1453 1457 1458 1459 1463 1462 1461 1464 1476 1457 1460 1467 1461 1459 1455 1451 1448 1451 1447 1442 1436 1429
1484 1481 1482 1479 1478 1479 1478 1478 1496 1471 1464 1467 1466 1463 1466 1463 1460 1458 1458 1466 1461 1465 1478 1470 1463 1461 1461 1464 1463 1459 1465 1471 1459 1461 1458 1454 1464 1450 1448 1449 1449 1446 1442 1434 1428
1482 1481 1479 1479 1478 1478 1478 1490 1477 1470 1467 1466 1466 1463 1459 1463 1467 1461 1457 1461 1464 1467 1472 1475 1458 1462 1462 1463 1464 1461 1471 1465 1472 1473 1472 1451 1450 1451 1449 1448 1447 1444 1439 1434 1429
1478 1478 1478 1477 1478 1478 1479 1482 1476 1471 1471 1468 1473 1469 1467 1466 1469 1467 1462 1468 1469 1468 1466 1471 1480 1460 1464 1465 1463 1461 1464 1467 1470 1470 1475 1443 1448 1458 1456 1454 1450 1445 1439 1435 1430
1477 1476 1478 1476 1476 1477 1479 1480 1473 1474 1474 1474 1472 1476 1474 1473 1471 1469 1463 1471 1469 1472 1470 1470 1478 1468 1464 1465 1458 1466 1469 1467 1467 1471 1474 1472 1452 1461 1463 1460 1454 1446 1441 1437 1432
1476 1477 1474 1477 1479 1479 1480 1476 1477 1475 1476 1475 1474 1477 1476 1475 1472 1469 1467 1469 1473 1474 1475 1472 1476 1478 1460 1462 1461 1460 1458 1458 1466 1469 1479 1478 1458 1453 1455 1453 1451 1446 1442 1438 1434
1474 1474 1473 1474 1483 1479 1476 1476 1477 1477 1476 1475 1476 1478 1478 1477 1472 1467 1466 1473 1473 1473 1474 1473 1478 1479 1461 1464 1462 1462 1459 1462 1468 1476 1477 1478 1455 1452 1453 1453 1451 1445 1440 1439 1434
1473 1474 1474 1473 1474 1474 1475 1476 1476 1476 1477 1476 1477 1476 1476 1475 1472 1469 1469 1472 1472 1472 1472 1474 1474 1467 1455 1456 1461 1464 1460 1460 1464 1474 1476 1462 1456 1452 1452 1454 1451 1445 1443 1439 1436
1469 1469 1469 1472 1473 1475 1475 1477 1476 1476 1477 1477 1476 1476 1475 1473 1476 1469 1469 1470 1471 1470 1471 1474 1472 1466 1459 1454 1454 1451 1455 1461 1465 1456 1458 1459 1462 1457 1455 1452 1452 1446 1445 1439 1436
1463 1466 1468 1467 1470 1473 1476 1475 1473 1474 1475 1475 1477 1474 1475 1475 1472 1469 1468 1468 1465 1470 1469 1472 1466 1463 1461 1447 1449 1449 1447 1449 1455 1453 1454 1458 1451 1452 1451 1450 1452 1449 1443 1440 1437
1457 1460 1463 1465 1469 1473 1472 1472 1471 1472 1474 1474 1474 1475 1473 1471 1471 1470 1469 1468 1466 1466 1467 1469 1467 1464 1458 1446 1457 1449 1442 1442 1448 1451 1449 1449 1444 1451 1451 1450 1452 1453 1445 1441 1440
Wind_Speed
18 18 18 19 19 19 18 16 16 16 17 19 19 20 21 22 20 11 4 4 10 14 10 6 4 2 4 3 4 2 2 3 4 5 1 2 2 1 4 8 5 7 3 9 8
19 19 19 19 19 19 18 17 16 16 17 19 20 22 22 22 23 6 3 5 12 11 8 5 2 3 4 3 3 3 3 4 1 2 3 2 2 8 2 3 4 9 7 10 11
22 21 20 20 20 20 19 18 18 18 19 20 21 22 21 20 14 1 3 8 12 9 6 6 5 4 4 7 7 4 5 1 2 3 3 3 1 3 5 3 3 11 14 12 11
22 22 21 20 22 22 21 20 19 19 19 21 22 23 20 13 4 4 9 11 9 4 3 6 6 3 3 4 9 4 7 6 1 2 1 2 2 2 8 6 8 6 10 6 7
22 21 21 22 23 23 23 20 20 20 21 22 23 23 20 8 9 12 11 11 6 2 5 5 5 3 2 5 3 4 4 4 3 5 5 7 6 5 8 8 15 12 10 8 8
20 21 20 25 23 22 20 19 21 21 21 22 23 20 14 5 7 9 11 9 7 2 1 5 3 5 6 4 1 4 6 11 8 11 7 6 4 4 4 10 13 10 8 7 8
20 22 19 19 20 20 20 21 21 20 22 22 21 15 13 13 10 11 12 5 3 2 1 4 7 4 6 6 9 7 5 7 9 12 3 3 5 8 12 9 10 6 8 8 8
20 20 17 19 20 20 19 24 23 19 22 21 16 9 7 7 8 10 5 4 6 7 7 9 10 5 3 7 6 3 3 3 5 8 2 6 7 5 12 11 8 10 10 7 13
20 20 20 22 23 26 28 27 24 19 19 17 6 5 7 5 8 9 8 8 9 9 6 5 4 1 2 0 2 4 4 5 5 0 5 4 6 4 7 9 10 9 9 12 18
21 21 20 20 20 19 21 20 15 17 11 5 4 6 5 3 4 8 12 7 2 1 4 2 1 2 3 3 3 3 3 4 5 4 5 5 13 7 14 13 12 10 9 11 16
22 21 20 18 15 14 17 12 5 4 4 6 11 10 16 7 9 4 6 7 5 3 3 4 2 4 8 9 4 5 4 7 6 3 2 7 11 8 9 11 7 7 5 11 21
23 20 16 12 10 12 6 3 4 4 7 15 17 16 6 9 3 4 4 3 4 4 3 2 6 4 4 6 6 3 5 7 4 3 2 6 12 6 4 4 6 3 8 16 24
24 19 13 11 7 7 3 3 5 7 3 4 3 1 2 5 3 1 5 5 5 4 6 6 2 4 2 2 4 3 5 3 4 6 5 7 6 3 3 5 4 4 10 20 27
23 19 12 8 4 5 2 4 3 1 2 2 2 2 1 1 2 7 8 3 3 4 3 3 2 1 1 3 4 4 1 2 5 4 3 3 4 2 3 3 4 4 20 23 29
22 18 9 6 6 6 5 4 3 1 4 3 0 1 1 3 2 3 2 4 4 4 3 4 2 1 2 1 1 5 2 2 1 3 3 2 2 4 4 3 4 6 19 27 29
20 16 11 6 5 7 4 2 1 2 5 0 0 2 2 2 3 2 2 4 5 3 4 6 3 2 1 2 1 3 3 1 2 1 1 4 3 2 2 4 6 6 18 29 32
17 16 13 5 5 4 4 2 2 3 0 1 1 1 1 3 4 7 2 1 1 4 3 2 3 2 2 2 2 1 4 3 2 1 4 3 2 5 3 1 4 6 20 28 30
14 13 8 6 2 5 4 3 1 5 2 1 3 3 3 5 2 2 2 2 2 3 2 1 4 2 0 1 2 1 3 3 3 2 4 2 4 4 3 4 9 12 22 27 31
11 11 10 6 1 3 2 2 3 3 3 5 7 1 1 1 1 4 1 1 4 1 3 3 2 1 4 1 0 0 0 1 0 2 2 3 1 3 2 5 11 18 25 30 32
10 6 8 5 2 1 3 4 2 5 5 4 1 4 3 5 5 5 3 4 3 5 3 1 3 2 2 1 1 2 2 1 2 2 4 4 3 3 5 8 9 10 21 29 30
7 4 3 5 3 0 2 4 2 6 7 5 2 4 3 3 2 3 2 4 4 4 7 2 3 3 2 5 3 1 1 0 1 2 3 3 4 5 6 5 7 9 21 25 28
2 1 2 2 2 1 2 2 5 4 5 3 2 2 2 2 3 3 2 2 4 2 3 2 1 4 5 2 2 1 2 3 3 3 1 2 5 2 4 4 3 12 20 24 24
3 4 4 5 2 2 4 2 3 2 1 0 0 1 1 2 3 3 3 3 4 2 3 2 3 3 4 2 2 3 3 3 3 2 4 4 4 3 1 3 5 14 20 24 26
2 0 1 2 2 2 2 2 2 0 2 2 2 1 1 3 5 4 3 2 5 5 6 1 3 4 3 3 3 1 3 4 3 2 2 5 3 4 1 3 8 15 19 22 26
8 3 3 2 2 1 2 1 2 2 2 2 2 2 2 3 3 3 2 2 5 3 3 3 4 5 9 13 6 6 5 7 7 5 5 3 3 5 5 3 4 12 17 22 26
8 5 5 2 6 5 2 2 4 1 2 1 3 1 0 4 3 5 3 3 4 4 4 3 3 1 4 6 9 8 9 9 8 4 7 3 8 4 3 2 8 12 17 20 24
16 10 5 8 4 3 4 4 4 4 1 6 2 1 6 4 4 8 7 5 1 3 5 4 2 1 4 2 2 6 7 11 4 3 5 4 3 5 2 2 6 12 14 17 21
Wind_Direction
332 335 336 338 340 339 338 339 341 344 346 347 348 345 339 336 333 321 298 299 313 313 309 311 11 356 331 270 252 262 48 253 268 3 94 158 122 129 123 132 182 187 145 155 192
316 317 321 325 328 330 329 330 330 335 338 342 343 342 340 334 330 306 285 297 320 319 316 329 8 30 239 237 192 125 151 246 351 6 32 235 169 165 151 170 200 177 188 189 231
306 311 313 315 317 320 324 325 329 331 333 336 337 338 338 336 331 330 293 312 324 325 348 34 22 309 257 207 192 197 209 205 33 87 32 357 265 141 140 245 223 211 193 214 238
307 305 306 309 312 311 315 318 320 322 326 329 332 333 335 333 326 270 298 315 323 322 19 341 295 247 230 223 219 216 256 281 202 104 20 280 268 294 200 224 214 198 205 237 286
306 298 298 304 304 300 303 307 312 316 320 322 326 329 330 311 262 279 304 317 309 342 18 333 345 350 315 340 311 216 258 292 266 237 240 255 252 242 253 254 235 241 253 272 297
293 293 303 300 297 300 292 301 314 310 315 320 323 323 316 269 263 297 321 307 307 231 65 305 333 326 293 278 261 306 312 290 287 232 215 214 239 199 254 236 208 224 262 281 275
301 296 297 291 306 296 291 297 311 305 310 312 318 313 292 275 273 297 310 323 334 278 242 302 282 307 335 317 341 322 319 304 250 218 141 56 283 238 228 182 179 224 246 266 242
308 298 291 288 288 289 289 300 301 299 309 309 311 300 268 284 277 288 289 324 300 295 301 280 288 290 254 308 319 286 227 289 289 143 131 117 269 332 170 179 211 232 246 260 278
319 309 298 288 281 281 285 291 297 295 299 301 292 292 279 282 277 276 289 297 245 274 307 283 1 347 321 294 306 228 280 247 310 296 134 164 260 211 183 202 220 239 254 283 298
324 316 311 300 292 294 296 298 297 289 285 280 228 290 250 322 240 285 300 315 250 188 227 207 93 57 348 98 244 226 276 295 279 258 193 198 252 249 254 221 224 245 270 294 302
331 325 317 312 307 308 302 314 295 281 211 245 284 265 308 299 309 298 321 305 253 246 215 194 79 240 233 207 214 272 264 270 286 300 264 236 264 255 270 196 214 249 286 325 321
336 335 332 327 325 323 336 287 272 282 294 278 281 278 290 330 310 205 297 293 186 242 166 73 238 207 143 173 221 281 286 281 284 174 238 265 274 266 169 140 167 57 9 338 340
342 343 354 354 357 15 338 294 298 307 275 299 59 79 4 350 345 28 322 306 246 262 269 202 255 144 189 252 244 262 237 275 267 327 261 283 294 42 42 92 109 91 352 351 347
345 345 359 342 358 336 333 332 303 342 350 205 94 42 49 9 95 313 297 280 281 253 294 270 175 148 231 259 128 274 28 346 322 355 261 68 284 258 198 231 157 343 353 350 344
345 349 346 353 320 322 328 310 283 32 359 351 233 198 269 162 256 255 244 240 251 293 70 255 135 266 258 337 14 245 343 285 280 264 317 297 86 286 137 285 272 342 346 346 345
342 347 349 340 311 290 314 310 297 60 255 286 60 351 330 196 212 217 242 245 267 289 231 230 123 88 130 86 310 307 302 186 239 224 343 252 130 250 205 223 293 311 348 348 346
339 346 354 357 304 251 316 315 35 163 186 198 313 13 242 264 242 191 186 241 130 19 358 357 146 92 91 287 287 301 44 326 317 266 227 312 82 246 230 224 228 289 345 347 348
332 341 355 2 253 277 328 53 95 275 34 246 255 260 233 8 250 303 188 272 100 88 18 60 314 42 174 205 236 8 145 169 273 307 283 358 248 288 121 98 27 357 349 349 354
329 325 334 348 328 305 341 54 215 339 347 349 320 132 148 79 310 354 304 45 54 88 123 23 276 92 44 9 325 320 250 121 238 231 28 214 158 22 168 347 355 349 353 351 355
324 324 280 313 314 224 84 236 238 22 333 29 292 18 322 353 336 0 314 359 95 48 41 21 316 186 178 284 40 164 130 33 15 347 306 280 166 197 314 313 325 335 343 349 354
319 322 293 315 226 169 223 235 53 64 24 42 348 325 312 317 289 260 287 47 37 30 328 113 102 289 88 210 184 111 318 53 126 146 192 299 282 206 220 244 291 318 345 349 356
284 326 294 204 56 95 209 337 8 345 24 23 127 217 228 313 276 263 280 72 53 104 126 30 187 263 247 350 342 327 270 176 137 263 194 159 281 205 206 231 287 336 349 358 360
238 239 296 189 154 211 230 246 181 254 14 110 160 216 204 272 283 278 26 122 133 156 159 2 248 301 317 359 8 253 201 136 106 81 219 142 263 151 91 5 358 357 353 4 6
216 222 212 137 170 44 29 288 248 1 311 54 306 118 294 264 210 281 325 184 181 210 192 14 248 222 231 249 132 229 205 178 150 140 208 232 292 159 327 323 346 0 3 6 14
198 228 192 183 248 167 89 112 277 283 210 146 229 234 356 288 303 236 236 212 207 226 198 170 242 224 252 259 237 231 191 184 189 210 180 247 200 266 237 232 23 353 11 9 16
186 162 175 76 115 122 193 235 229 233 155 246 200 10 337 272 283 288 293 193 224 172 194 152 257 63 277 260 215 245 223 210 212 242 273 229 297 167 178 103 42 15 11 10 14
193 177 180 161 132 128 210 209 214 112 225 243 218 332 269 275 289 279 262 279 253 191 188 185 249 117 269 291 51 288 227 194 180 203 157 190 208 150 123 74 35 34 13 12 16